Time,TemperatureF,DewpointF,PressureIn,WindDirection,WindDirectionDegrees,WindSpeedMPH,WindSpeedGustMPH,Humidity,HourlyPrecipIn,Conditions,Clouds,dailyrainin,SolarRadiationWatts/m^2,SoftwareType,DateUTC
2013-08-26 00:03:00,81.0,71.0,-100.00,WSW,244,6.0,15.0,71,0.00,,,0.01,0.000000,,2013-08-26 05:03:00,
2013-08-26 00:12:00,80.0,71.0,-100.00,WSW,252,6.0,12.0,75,0.00,,,0.01,0.000000,,2013-08-26 05:12:00,
2013-08-26 00:44:00,80.0,71.0,-100.00,WSW,252,6.0,12.0,75,0.00,,,0.01,0.000000,,2013-08-26 05:44:00,
2013-08-26 00:52:00,80.0,71.0,-100.00,WSW,252,6.0,12.0,75,0.00,,,0.01,0.000000,,2013-08-26 05:52:00,
2013-08-26 01:02:00,80.0,71.0,-100.00,WSW,252,6.0,12.0,75,0.00,,,0.01,0.000000,,2013-08-26 06:02:00,
2013-08-26 01:42:00,80.0,72.0,-100.00,WSW,252,7.0,13.0,76,0.00,,,0.01,0.000000,,2013-08-26 06:42:00,
2013-08-26 01:52:00,80.0,72.0,-100.00,WSW,252,7.0,13.0,76,0.00,,,0.01,0.000000,,2013-08-26 06:52:00,
2013-08-26 02:02:00,80.0,72.0,-100.00,WSW,252,7.0,13.0,76,0.00,,,0.01,0.000000,,2013-08-26 07:02:00,
2013-08-26 02:11:00,80.0,72.0,-100.00,WSW,252,7.0,13.0,76,0.00,,,0.01,0.000000,,2013-08-26 07:11:00,
2013-08-26 02:12:00,79.0,71.0,-100.00,WSW,255,5.0,15.0,77,0.00,,,0.01,0.000000,,2013-08-26 07:12:00,
2013-08-26 02:42:00,79.0,71.0,-100.00,WSW,255,5.0,15.0,77,0.00,,,0.01,0.000000,,2013-08-26 07:42:00,
2013-08-26 02:52:00,79.0,71.0,-100.00,WSW,255,5.0,15.0,77,0.00,,,0.01,0.000000,,2013-08-26 07:52:00,
2013-08-26 03:02:00,79.0,71.0,-100.00,WSW,255,5.0,15.0,77,0.00,,,0.01,0.000000,,2013-08-26 08:02:00,
2013-08-26 03:42:00,77.0,68.0,-100.00,North,354,9.0,17.0,75,0.00,,,0.01,0.000000,,2013-08-26 08:42:00,
2013-08-26 03:52:00,77.0,68.0,-100.00,North,354,9.0,17.0,75,0.00,,,0.01,0.000000,,2013-08-26 08:52:00,
2013-08-26 04:02:00,77.0,68.0,-100.00,North,354,9.0,17.0,75,0.00,,,0.01,0.000000,,2013-08-26 09:02:00,
2013-08-26 04:11:00,77.0,68.0,-100.00,North,354,9.0,17.0,75,0.00,,,0.01,0.000000,,2013-08-26 09:11:00,
2013-08-26 04:12:00,73.0,66.0,-100.00,WNW,298,2.0,16.0,79,0.00,,,0.01,0.000000,,2013-08-26 09:12:00,
2013-08-26 04:43:00,73.0,66.0,-100.00,WNW,298,2.0,16.0,79,0.00,,,0.01,0.000000,,2013-08-26 09:43:00,
2013-08-26 04:54:00,73.0,66.0,-100.00,WNW,298,2.0,16.0,79,0.00,,,0.01,0.000000,,2013-08-26 09:54:00,
2013-08-26 05:03:00,73.0,66.0,-100.00,WNW,298,2.0,16.0,79,0.00,,,0.01,0.000000,,2013-08-26 10:03:00,
2013-08-26 05:12:00,69.0,67.0,-100.00,SW,235,2.0,13.0,94,0.12,,,0.12,0.000000,,2013-08-26 10:12:00,
2013-08-26 05:42:00,69.0,67.0,-100.00,SW,235,2.0,13.0,94,0.12,,,0.12,0.000000,,2013-08-26 10:42:00,
2013-08-26 05:52:00,69.0,67.0,-100.00,SW,235,2.0,13.0,94,0.12,,,0.12,0.000000,,2013-08-26 10:52:00,
2013-08-26 06:02:00,69.0,67.0,-100.00,SW,235,2.0,13.0,94,0.12,,,0.12,0.000000,,2013-08-26 11:02:00,
2013-08-26 06:12:00,69.0,68.0,-100.00,SSW,204,12.0,23.0,97,0.17,,,0.29,0.000000,,2013-08-26 11:12:00,
2013-08-26 06:42:00,69.0,68.0,-100.00,SSW,204,12.0,23.0,97,0.17,,,0.29,0.000000,,2013-08-26 11:42:00,
2013-08-26 06:52:00,69.0,68.0,-100.00,SSW,204,12.0,23.0,97,0.17,,,0.29,0.000000,,2013-08-26 11:52:00,
2013-08-26 07:01:00,69.0,68.0,-100.00,SSW,204,12.0,23.0,97,0.17,,,0.29,0.000000,,2013-08-26 12:01:00,
2013-08-26 07:12:00,69.0,65.0,-100.00,West,281,4.0,20.0,86,0.02,,,0.31,3.000000,,2013-08-26 12:12:00,
2013-08-26 07:42:00,69.0,65.0,-100.00,West,281,4.0,20.0,86,0.02,,,0.31,3.000000,,2013-08-26 12:42:00,
2013-08-26 07:52:00,69.0,65.0,-100.00,West,281,4.0,20.0,86,0.02,,,0.31,3.000000,,2013-08-26 12:52:00,
2013-08-26 08:02:00,69.0,65.0,-100.00,West,281,4.0,20.0,86,0.02,,,0.31,3.000000,,2013-08-26 13:02:00,
2013-08-26 08:42:00,70.0,68.0,-100.00,NNW,331,3.0,7.0,92,0.00,,,0.31,83.000000,,2013-08-26 13:42:00,
2013-08-26 08:52:00,70.0,68.0,-100.00,NNW,331,3.0,7.0,92,0.00,,,0.31,83.000000,,2013-08-26 13:52:00,
2013-08-26 09:02:00,70.0,68.0,-100.00,NNW,331,3.0,7.0,92,0.00,,,0.31,83.000000,,2013-08-26 14:02:00,
2013-08-26 09:11:00,70.0,68.0,-100.00,NNW,331,3.0,7.0,92,0.00,,,0.31,83.000000,,2013-08-26 14:11:00,
2013-08-26 09:12:00,75.0,69.0,-100.00,NW,307,4.0,7.0,83,0.00,,,0.31,277.000000,,2013-08-26 14:12:00,
2013-08-26 09:42:00,75.0,69.0,-100.00,NW,307,4.0,7.0,83,0.00,,,0.31,277.000000,,2013-08-26 14:42:00,
2013-08-26 09:52:00,75.0,69.0,-100.00,NW,307,4.0,7.0,83,0.00,,,0.31,277.000000,,2013-08-26 14:52:00,
2013-08-26 10:01:00,75.0,69.0,-100.00,NW,307,4.0,7.0,83,0.00,,,0.31,277.000000,,2013-08-26 15:01:00,
2013-08-26 10:12:00,78.0,68.0,-100.00,WNW,285,6.0,14.0,71,0.00,,,0.31,493.000000,,2013-08-26 15:12:00,
2013-08-26 10:59:00,78.0,68.0,-100.00,WNW,285,6.0,14.0,71,0.00,,,0.31,493.000000,,2013-08-26 15:59:00,
2013-08-26 11:10:00,78.0,68.0,-100.00,WNW,285,6.0,14.0,71,0.00,,,0.31,493.000000,,2013-08-26 16:10:00,
2013-08-26 11:12:00,81.0,68.0,-100.00,West,276,7.0,14.0,65,0.00,,,0.31,590.000000,,2013-08-26 16:12:00,
2013-08-26 11:48:00,81.0,68.0,-100.00,West,276,7.0,14.0,65,0.00,,,0.31,590.000000,,2013-08-26 16:48:00,
2013-08-26 11:59:00,81.0,68.0,-100.00,West,276,7.0,14.0,65,0.00,,,0.31,590.000000,,2013-08-26 16:59:00,
2013-08-26 12:06:00,81.0,68.0,-100.00,West,276,7.0,14.0,65,0.00,,,0.31,590.000000,,2013-08-26 17:06:00,
2013-08-26 12:12:00,85.0,69.0,-100.00,NW,310,5.0,15.0,59,0.00,,,0.31,789.000000,,2013-08-26 17:12:00,
2013-08-26 12:43:00,85.0,69.0,-100.00,NW,310,5.0,15.0,59,0.00,,,0.31,789.000000,,2013-08-26 17:43:00,
2013-08-26 12:53:00,85.0,69.0,-100.00,NW,310,5.0,15.0,59,0.00,,,0.31,789.000000,,2013-08-26 17:53:00,
2013-08-26 13:01:00,85.0,69.0,-100.00,NW,310,5.0,15.0,59,0.00,,,0.31,789.000000,,2013-08-26 18:01:00,
2013-08-26 13:42:00,87.0,70.0,-100.00,NW,322,4.0,11.0,58,0.00,,,0.31,876.000000,,2013-08-26 18:42:00,
2013-08-26 13:52:00,87.0,70.0,-100.00,NW,322,4.0,11.0,58,0.00,,,0.31,876.000000,,2013-08-26 18:52:00,
2013-08-26 14:01:00,87.0,70.0,-100.00,NW,322,4.0,11.0,58,0.00,,,0.31,876.000000,,2013-08-26 19:01:00,
2013-08-26 14:11:00,87.0,70.0,-100.00,NW,322,4.0,11.0,58,0.00,,,0.31,876.000000,,2013-08-26 19:11:00,
2013-08-26 14:42:00,89.0,71.0,-100.00,NNW,334,4.0,11.0,55,0.00,,,0.31,830.000000,,2013-08-26 19:42:00,
2013-08-26 14:52:00,89.0,71.0,-100.00,NNW,334,4.0,11.0,55,0.00,,,0.31,830.000000,,2013-08-26 19:52:00,
2013-08-26 15:02:00,89.0,71.0,-100.00,NNW,334,4.0,11.0,55,0.00,,,0.31,830.000000,,2013-08-26 20:02:00,
2013-08-26 15:11:00,89.0,71.0,-100.00,NNW,334,4.0,11.0,55,0.00,,,0.31,830.000000,,2013-08-26 20:11:00,
2013-08-26 16:12:00,90.0,70.0,-100.00,ENE,65,3.0,7.0,52,0.00,,,0.31,721.000000,,2013-08-26 21:12:00,
2013-08-26 16:44:00,90.0,70.0,-100.00,ENE,65,3.0,7.0,52,0.00,,,0.31,721.000000,,2013-08-26 21:44:00,
2013-08-26 17:12:00,89.0,70.0,-100.00,WNW,289,2.0,7.0,53,0.00,,,0.31,531.000000,,2013-08-26 22:12:00,
2013-08-26 17:42:00,89.0,70.0,-100.00,WNW,289,2.0,7.0,53,0.00,,,0.31,531.000000,,2013-08-26 22:42:00,
2013-08-26 17:53:00,89.0,70.0,-100.00,WNW,289,2.0,7.0,53,0.00,,,0.31,531.000000,,2013-08-26 22:53:00,
2013-08-26 18:03:00,89.0,70.0,-100.00,WNW,289,2.0,7.0,53,0.00,,,0.31,531.000000,,2013-08-26 23:03:00,
2013-08-26 18:42:00,84.0,72.0,-100.00,SSE,154,3.0,6.0,68,0.00,,,0.31,200.000000,,2013-08-26 23:42:00,
2013-08-26 18:52:00,84.0,72.0,-100.00,SSE,154,3.0,6.0,68,0.00,,,0.31,200.000000,,2013-08-26 23:52:00,
2013-08-26 19:01:00,84.0,72.0,-100.00,SSE,154,3.0,6.0,68,0.00,,,0.31,200.000000,,2013-08-27 00:01:00,
2013-08-26 19:11:00,84.0,72.0,-100.00,SSE,154,3.0,6.0,68,0.00,,,0.31,200.000000,,2013-08-27 00:11:00,
2013-08-26 19:12:00,80.0,71.0,-100.00,SSE,151,3.0,6.0,75,0.00,,,0.31,110.000000,,2013-08-27 00:12:00,
2013-08-26 19:42:00,80.0,71.0,-100.00,SSE,151,3.0,6.0,75,0.00,,,0.31,110.000000,,2013-08-27 00:42:00,
2013-08-26 19:52:00,80.0,71.0,-100.00,SSE,151,3.0,6.0,75,0.00,,,0.31,110.000000,,2013-08-27 00:52:00,
2013-08-26 20:02:00,80.0,71.0,-100.00,SSE,151,3.0,6.0,75,0.00,,,0.31,110.000000,,2013-08-27 01:02:00,
2013-08-26 20:12:00,76.0,72.0,-100.00,ESE,113,2.0,3.0,87,0.00,,,-99.99,2.000000,,2013-08-27 01:12:00,
2013-08-26 20:42:00,76.0,72.0,-100.00,ESE,113,2.0,3.0,87,0.00,,,-99.99,2.000000,,2013-08-27 01:42:00,
2013-08-26 20:52:00,76.0,72.0,-100.00,ESE,113,2.0,3.0,87,0.00,,,-99.99,2.000000,,2013-08-27 01:52:00,
2013-08-26 21:02:00,76.0,72.0,-100.00,ESE,113,2.0,3.0,87,0.00,,,-99.99,2.000000,,2013-08-27 02:02:00,
2013-08-26 21:12:00,75.0,71.0,-100.00,SE,140,2.0,5.0,88,0.00,,,0.31,0.000000,,2013-08-27 02:12:00,
2013-08-26 21:43:00,75.0,71.0,-100.00,SE,140,2.0,5.0,88,0.00,,,0.31,0.000000,,2013-08-27 02:43:00,
2013-08-26 21:52:00,75.0,71.0,-100.00,SE,140,2.0,5.0,88,0.00,,,0.31,0.000000,,2013-08-27 02:52:00,
2013-08-26 22:02:00,75.0,71.0,-100.00,SE,140,2.0,5.0,88,0.00,,,0.31,0.000000,,2013-08-27 03:02:00,
2013-08-26 22:12:00,74.0,71.0,-100.00,SE,125,3.0,5.0,91,0.00,,,0.31,0.000000,,2013-08-27 03:12:00,
2013-08-26 22:45:00,74.0,71.0,-100.00,SE,125,3.0,5.0,91,0.00,,,0.31,0.000000,,2013-08-27 03:45:00,
2013-08-26 22:58:00,74.0,71.0,-100.00,SE,125,3.0,5.0,91,0.00,,,0.31,0.000000,,2013-08-27 03:58:00,
2013-08-26 23:08:00,74.0,71.0,-100.00,SE,125,3.0,5.0,91,0.00,,,0.31,0.000000,,2013-08-27 04:08:00,
2013-08-26 23:12:00,72.0,70.0,-100.00,ENE,78,0.0,3.0,94,0.00,,,0.31,0.000000,,2013-08-27 04:12:00,
2013-08-26 23:47:00,72.0,70.0,-100.00,ENE,78,0.0,3.0,94,0.00,,,0.31,0.000000,,2013-08-27 04:47:00,
2013-08-26 23:54:00,72.0,70.0,-100.00,ENE,78,0.0,3.0,94,0.00,,,0.31,0.000000,,2013-08-27 04:54:00,